{"data":{"norad_id":63676,"epoch":"2026-09-20T19:38:01.300704Z","epoch_age_seconds":125109,"freshness":"FRESH","line1":"1 63676U 25085N   26263.81807061  .00090328  00000+0  69870-3 0  9992","line2":"2 63676  42.9998 181.9595 0001479 277.6239  82.4461 15.70878044 81587","mean_motion":15.70878044,"eccentricity":0.0001479,"inclination_deg":42.9998,"raan_deg":181.9595,"arg_perigee_deg":277.6239,"mean_anomaly_deg":82.4461,"bstar":0.0006987,"rev_number":8158,"period_min":91.668478371068,"perigee_km":355.39029089099,"apogee_km":357.38236289108,"semimajor_km":6734.523326891,"source":"CELESTRAK","updated_at":"2026-09-21T09:00:35.059506Z"}}